�������l�o���
Date,Time,MP-1(��Sv/h),MP-2(��Sv/h),MP-3(��Sv/h),MP-4(��Sv/h),MP-5(��Sv/h),MP-6(��Sv/h),MP-7(��Sv/h),MP-8(��Sv/h),����,����(m/s),���J
2022/07/08,00:00,0.569,0.828,0.530,1.005,0.713,0.338,0.585,0.553,�k,5.1,�L
2022/07/08,00:10,0.569,0.826,0.530,1.007,0.715,0.337,0.584,0.554,�k,5.6,�L
2022/07/08,00:20,0.570,0.828,0.530,1.005,0.715,0.336,0.584,0.553,�k,4.8,�L
2022/07/08,00:30,0.569,0.827,0.529,1.007,0.713,0.337,0.584,0.555,�k�k��,5.4,�L
2022/07/08,00:40,0.570,0.827,0.531,1.006,0.715,0.336,0.585,0.553,�k�k��,4.2,��
2022/07/08,00:50,0.569,0.829,0.531,1.006,0.713,0.336,0.584,0.554,�k,4.4,��
2022/07/08,01:00,0.569,0.827,0.531,1.004,0.713,0.336,0.585,0.553,�k,3.4,�L
2022/07/08,01:10,0.570,0.828,0.530,1.006,0.715,0.337,0.584,0.553,�k�k��,4.4,�L
2022/07/08,01:20,0.569,0.827,0.530,1.006,0.714,0.338,0.585,0.553,�k,4.2,�L
2022/07/08,01:30,0.571,0.827,0.530,1.007,0.716,0.336,0.585,0.555,�k�k��,4.0,��
2022/07/08,01:40,0.570,0.827,0.530,1.006,0.716,0.337,0.585,0.553,�k,3.5,��
2022/07/08,01:50,0.570,0.826,0.531,1.007,0.715,0.337,0.585,0.554,�k�k��,4.5,��
2022/07/08,02:00,0.569,0.829,0.531,1.007,0.714,0.337,0.585,0.554,�k,4.5,��
2022/07/08,02:10,0.572,0.827,0.529,1.007,0.715,0.336,0.585,0.555,�k,4.3,��
2022/07/08,02:20,0.572,0.827,0.530,1.007,0.713,0.336,0.583,0.554,�k,5.9,��
2022/07/08,02:30,0.572,0.827,0.531,1.006,0.713,0.336,0.586,0.555,�k,6.3,��
2022/07/08,02:40,0.572,0.828,0.530,1.005,0.714,0.336,0.586,0.553,�k�k��,6.1,��
2022/07/08,02:50,0.573,0.828,0.531,1.006,0.715,0.336,0.586,0.554,�k�k��,6.0,��
2022/07/08,03:00,0.571,0.830,0.531,1.007,0.714,0.337,0.586,0.554,�k,5.5,��
2022/07/08,03:10,0.570,0.828,0.530,1.007,0.715,0.337,0.586,0.555,�k,6.1,�L
2022/07/08,03:20,0.570,0.829,0.530,1.009,0.713,0.337,0.585,0.554,�k,5.4,�L
2022/07/08,03:30,0.568,0.826,0.530,1.008,0.713,0.337,0.584,0.553,�k,4.9,�L
2022/07/08,03:40,0.570,0.827,0.530,1.006,0.713,0.335,0.585,0.555,�k,5.2,�L
2022/07/08,03:50,0.569,0.826,0.531,1.007,0.716,0.337,0.585,0.553,�k�k��,5.3,�L
2022/07/08,04:00,0.570,0.826,0.531,1.006,0.712,0.336,0.585,0.553,�k,7.2,�L
2022/07/08,04:10,0.569,0.825,0.528,1.005,0.711,0.335,0.584,0.553,�k,7.4,�L
2022/07/08,04:20,0.569,0.823,0.527,1.004,0.708,0.336,0.582,0.554,�k�k��,7.2,�L
2022/07/08,04:30,0.568,0.822,0.525,1.004,0.709,0.336,0.583,0.552,�k�k��,6.7,�L
2022/07/08,04:40,0.567,0.822,0.528,1.006,0.708,0.336,0.584,0.552,�k�k��,6.8,�L
2022/07/08,04:50,0.566,0.821,0.524,1.004,0.707,0.336,0.583,0.553,�k�k��,7.9,�L
2022/07/08,05:00,0.567,0.820,0.525,1.004,0.706,0.335,0.582,0.551,�k,6.7,�L
2022/07/08,05:10,0.567,0.817,0.524,1.003,0.706,0.335,0.581,0.552,�k,7.0,�L
2022/07/08,05:20,0.566,0.819,0.524,1.004,0.706,0.336,0.583,0.552,�k,6.2,��
2022/07/08,05:30,0.565,0.819,0.525,1.003,0.705,0.336,0.582,0.552,�k,7.4,��
2022/07/08,05:40,0.568,0.820,0.525,1.003,0.708,0.336,0.582,0.553,�k,6.7,�L
2022/07/08,05:50,0.567,0.822,0.524,1.002,0.706,0.335,0.583,0.552,�k,7.4,��
2022/07/08,06:00,0.567,0.822,0.524,1.002,0.707,0.336,0.582,0.554,�k,7.4,��
2022/07/08,06:10,0.568,0.822,0.524,1.002,0.708,0.334,0.583,0.553,�k,8.1,��
2022/07/08,06:20,0.568,0.820,0.526,1.002,0.708,0.334,0.583,0.554,�k,7.4,��
2022/07/08,06:30,0.566,0.821,0.524,1.003,0.709,0.335,0.584,0.552,�k,7.2,��
2022/07/08,06:40,0.565,0.822,0.525,1.002,0.707,0.335,0.584,0.554,�k,7.3,��
2022/07/08,06:50,0.568,0.821,0.526,1.003,0.706,0.334,0.581,0.553,�k,7.7,��
2022/07/08,07:00,0.567,0.822,0.528,1.003,0.706,0.335,0.583,0.552,�k,7.0,��
2022/07/08,07:10,0.567,0.823,0.526,1.002,0.709,0.335,0.584,0.553,�k,7.8,�L
2022/07/08,07:20,0.569,0.823,0.528,1.003,0.709,0.335,0.583,0.553,�k,8.8,�L
2022/07/08,07:30,0.569,0.820,0.526,1.004,0.708,0.335,0.585,0.553,�k,9.0,��
2022/07/08,07:40,0.568,0.818,0.525,1.004,0.709,0.336,0.584,0.553,�k,8.5,��
2022/07/08,07:50,0.569,0.821,0.526,1.003,0.708,0.336,0.585,0.551,�k,6.3,��
2022/07/08,08:00,0.568,0.823,0.526,1.005,0.708,0.336,0.584,0.552,�k,7.1,��
2022/07/08,08:10,0.570,0.823,0.526,1.004,0.708,0.336,0.584,0.551,�k,8.1,��
2022/07/08,08:20,0.569,0.819,0.528,1.004,0.710,0.335,0.585,0.553,�k,6.8,��
2022/07/08,08:30,0.569,0.821,0.527,1.004,0.709,0.337,0.585,0.553,�k,8.7,��
2022/07/08,08:40,0.568,0.821,0.527,1.005,0.710,0.336,0.586,0.553,�k,8.4,��
2022/07/08,08:50,0.570,0.823,0.526,1.005,0.709,0.336,0.585,0.553,�k,9.1,��
2022/07/08,09:00,0.570,0.823,0.527,1.003,0.710,0.337,0.584,0.552,�k,9.1,��
2022/07/08,09:10,0.571,0.821,0.528,1.004,0.709,0.337,0.586,0.555,�k,7.8,��
2022/07/08,09:20,0.570,0.822,0.527,1.003,0.711,0.337,0.586,0.554,�k,8.7,��
2022/07/08,09:30,0.570,0.821,0.527,1.004,0.711,0.336,0.587,0.555,�k,9.0,��
2022/07/08,09:40,0.571,0.824,0.528,1.004,0.712,0.336,0.585,0.553,�k,8.7,��
2022/07/08,09:50,0.572,0.822,0.527,1.005,0.711,0.337,0.585,0.553,�k,8.5,��
2022/07/08,10:00,0.570,0.823,0.527,1.004,0.711,0.337,0.586,0.553,�k,8.8,��
2022/07/08,10:10,0.571,0.824,0.528,1.006,0.712,0.336,0.586,0.554,�k,8.4,��
2022/07/08,10:20,0.572,0.822,0.528,1.004,0.711,0.337,0.587,0.554,�k,8.2,��
2022/07/08,10:30,0.572,0.825,0.529,1.004,0.713,0.338,0.585,0.556,�k,7.7,��
2022/07/08,10:40,0.573,0.826,0.529,1.007,0.713,0.336,0.588,0.555,�k,6.9,��
2022/07/08,10:50,0.571,0.825,0.529,1.006,0.713,0.337,0.587,0.555,�k,8.6,��
2022/07/08,11:00,0.573,0.826,0.530,1.009,0.712,0.337,0.587,0.555,�k�k��,7.5,��
2022/07/08,11:10,0.574,0.827,0.529,1.007,0.713,0.338,0.587,0.555,�k,9.8,��
2022/07/08,11:20,0.575,0.824,0.531,1.005,0.715,0.338,0.587,0.556,�k,10.2,��
2022/07/08,11:30,0.573,0.826,0.532,1.004,0.714,0.337,0.586,0.555,�k�k��,7.8,��
2022/07/08,11:40,0.573,0.826,0.533,1.007,0.716,0.339,0.588,0.556,�k,9.1,��
2022/07/08,11:50,0.574,0.829,0.532,1.008,0.715,0.338,0.587,0.558,�k,9.3,��
2022/07/08,12:00,0.572,0.829,0.531,1.006,0.715,0.337,0.588,0.556,�k,8.9,��
2022/07/08,12:10,0.576,0.831,0.535,1.007,0.715,0.338,0.588,0.556,�k�k��,6.9,��
2022/07/08,12:20,0.576,0.832,0.533,1.010,0.717,0.338,0.589,0.555,�k�k��,9.5,��
2022/07/08,12:30,0.577,0.834,0.535,1.007,0.716,0.339,0.589,0.558,�k�k��,10.2,��
2022/07/08,12:40,0.578,0.833,0.535,1.009,0.717,0.340,0.588,0.557,�k�k��,9.8,��
2022/07/08,12:50,0.575,0.834,0.535,1.010,0.717,0.338,0.589,0.558,�k,10.8,��
2022/07/08,13:00,0.576,0.832,0.535,1.009,0.718,0.338,0.590,0.557,�k�k��,9.2,��
2022/07/08,13:10,0.577,0.834,0.534,1.010,0.719,0.338,0.590,0.558,�k�k��,9.6,��
2022/07/08,13:20,0.577,0.832,0.535,1.010,0.720,0.338,0.589,0.556,�k�k��,7.4,��
2022/07/08,13:30,0.576,0.832,0.534,1.010,0.719,0.340,0.590,0.557,�k,9.4,��
2022/07/08,13:40,0.578,0.832,0.535,1.010,0.721,0.340,0.589,0.558,�k�k��,7.9,��
2022/07/08,13:50,0.577,0.834,0.534,1.009,0.719,0.338,0.588,0.557,�k�k��,7.8,��
2022/07/08,14:00,0.576,0.833,0.535,1.012,0.721,0.339,0.588,0.557,�k�k��,8.3,��
2022/07/08,14:10,0.577,0.832,0.537,1.011,0.722,0.338,0.589,0.558,�k,8.9,��
2022/07/08,14:20,0.578,0.832,0.535,1.010,0.721,0.340,0.590,0.558,�k,9.3,��
2022/07/08,14:30,0.579,0.833,0.536,1.011,0.722,0.339,0.590,0.557,�k,7.9,��
2022/07/08,14:40,0.577,0.837,0.535,1.011,0.721,0.339,0.589,0.558,�k,8.4,��
2022/07/08,14:50,0.577,0.836,0.535,1.012,0.722,0.341,0.590,0.558,�k,8.3,��
2022/07/08,15:00,0.577,0.834,0.535,1.013,0.723,0.339,0.591,0.558,�k,8.2,��
2022/07/08,15:10,0.577,0.834,0.537,1.010,0.722,0.340,0.590,0.558,�k,7.1,��
2022/07/08,15:20,0.578,0.834,0.536,1.011,0.721,0.339,0.591,0.560,�k�k��,11.6,��
2022/07/08,15:30,0.578,0.834,0.535,1.011,0.722,0.339,0.590,0.557,�k�k��,11.6,��
2022/07/08,15:40,0.577,0.836,0.536,1.011,0.721,0.340,0.590,0.559,�k�k��,11.0,��
2022/07/08,15:50,0.578,0.838,0.534,1.011,0.721,0.339,0.589,0.557,�k�k��,10.9,��
2022/07/08,16:00,0.578,0.837,0.536,1.011,0.722,0.340,0.589,0.558,�k�k��,11.6,��
2022/07/08,16:10,0.579,0.837,0.538,1.012,0.721,0.339,0.588,0.559,�k,11.1,��
2022/07/08,16:20,0.578,0.838,0.536,1.012,0.722,0.340,0.589,0.559,�k�k��,9.7,��
2022/07/08,16:30,0.579,0.838,0.535,1.014,0.725,0.340,0.591,0.557,�k,11.1,��
2022/07/08,16:40,0.579,0.837,0.536,1.014,0.722,0.339,0.590,0.558,�k�k��,10.2,��
2022/07/08,16:50,0.577,0.836,0.535,1.015,0.722,0.338,0.588,0.558,�k,9.6,��
2022/07/08,17:00,0.579,0.837,0.535,1.015,0.722,0.339,0.590,0.557,�k,10.0,��
2022/07/08,17:10,0.579,0.836,0.537,1.013,0.722,0.340,0.591,0.559,�k,9.8,��
2022/07/08,17:20,0.577,0.839,0.536,1.016,0.721,0.340,0.589,0.560,�k,7.9,��
2022/07/08,17:30,0.579,0.837,0.536,1.015,0.723,0.338,0.590,0.558,�k,8.7,��
2022/07/08,17:40,0.580,0.838,0.537,1.014,0.721,0.338,0.590,0.558,�k,8.4,��
2022/07/08,17:50,0.579,0.839,0.537,1.016,0.721,0.339,0.590,0.559,�k,8.4,��
2022/07/08,18:00,0.579,0.837,0.534,1.014,0.722,0.339,0.589,0.558,�k,8.7,��
2022/07/08,18:10,0.579,0.837,0.536,1.013,0.723,0.338,0.590,0.559,�k,8.1,��
2022/07/08,18:20,0.578,0.839,0.538,1.015,0.721,0.339,0.589,0.558,�k,7.5,��
2022/07/08,18:30,0.578,0.840,0.536,1.016,0.725,0.338,0.591,0.559,�k,8.7,��
2022/07/08,18:40,0.578,0.841,0.535,1.018,0.723,0.338,0.589,0.559,�k,8.9,�L
2022/07/08,18:50,0.578,0.839,0.536,1.014,0.723,0.338,0.590,0.559,�k,10.2,�L
2022/07/08,19:00,0.578,0.837,0.537,1.015,0.724,0.339,0.588,0.558,�k,9.1,�L
2022/07/08,19:10,0.578,0.835,0.536,1.014,0.721,0.338,0.587,0.558,�k,8.1,�L
2022/07/08,19:20,0.576,0.836,0.534,1.018,0.723,0.338,0.590,0.558,�k,9.3,�L
2022/07/08,19:30,0.576,0.837,0.535,1.017,0.722,0.338,0.588,0.559,�k,7.9,�L
2022/07/08,19:40,0.577,0.836,0.535,1.016,0.722,0.339,0.590,0.558,�k,8.0,�L
2022/07/08,19:50,0.575,0.836,0.535,1.016,0.719,0.338,0.589,0.557,�k,8.6,�L
2022/07/08,20:00,0.575,0.833,0.533,1.015,0.718,0.339,0.588,0.556,�k,8.0,�L
2022/07/08,20:10,0.574,0.831,0.533,1.015,0.715,0.338,0.587,0.557,�k,8.1,�L
2022/07/08,20:20,0.574,0.829,0.531,1.013,0.712,0.337,0.588,0.556,�k,8.5,�L
2022/07/08,20:30,0.573,0.828,0.529,1.011,0.711,0.338,0.586,0.555,�k,8.6,�L
2022/07/08,20:40,0.572,0.826,0.530,1.005,0.711,0.336,0.584,0.554,�k,6.8,�L
2022/07/08,20:50,0.574,0.823,0.528,1.002,0.709,0.336,0.585,0.556,�k,7.1,�L
2022/07/08,21:00,0.571,0.824,0.527,1.002,0.707,0.338,0.585,0.555,�k,8.7,�L
2022/07/08,21:10,0.572,0.823,0.529,1.000,0.709,0.337,0.586,0.554,�k,8.3,�L
2022/07/08,21:20,0.571,0.823,0.527,0.999,0.708,0.336,0.584,0.555,�k,8.5,�L
2022/07/08,21:30,0.573,0.824,0.528,1.002,0.708,0.337,0.584,0.556,�k,7.2,�L
2022/07/08,21:40,0.572,0.824,0.530,1.001,0.709,0.336,0.584,0.554,�k,9.2,�L
2022/07/08,21:50,0.573,0.824,0.529,1.002,0.710,0.337,0.582,0.556,�k,7.9,�L
2022/07/08,22:00,0.570,0.822,0.528,1.002,0.707,0.336,0.585,0.556,�k�k��,7.1,�L
2022/07/08,22:10,0.570,0.824,0.528,1.003,0.706,0.335,0.585,0.555,�k�k��,6.9,�L
2022/07/08,22:20,0.571,0.824,0.527,1.001,0.705,0.336,0.581,0.554,�k�k��,7.1,�L
2022/07/08,22:30,0.571,0.822,0.527,1.000,0.705,0.335,0.584,0.555,�k�k��,7.7,�L
2022/07/08,22:40,0.569,0.816,0.524,0.995,0.703,0.336,0.582,0.554,�k�k��,6.9,�L
2022/07/08,22:50,0.567,0.813,0.523,0.991,0.699,0.334,0.582,0.554,�k�k��,6.5,�L
2022/07/08,23:00,0.567,0.810,0.521,0.986,0.695,0.333,0.581,0.552,�k�k��,6.3,�L
2022/07/08,23:10,0.565,0.810,0.523,0.984,0.696,0.333,0.581,0.552,�k�k��,5.8,�L
2022/07/08,23:20,0.565,0.810,0.522,0.985,0.697,0.333,0.579,0.551,�k�k��,7.7,�L
2022/07/08,23:30,0.564,0.808,0.521,0.981,0.695,0.333,0.579,0.551,�k�k��,7.5,�L
2022/07/08,23:40,0.564,0.809,0.521,0.980,0.695,0.333,0.578,0.550,�k�k��,7.3,�L
2022/07/08,23:50,0.564,0.808,0.522,0.978,0.694,0.333,0.578,0.550,�k�k��,6.8,�L
